www.pogodaiklimat.ru

Погода и климат >> Архив погоды >> Индия >> Раджастхан >> Аэропорт Махараны Пратапа


ПОГОДА в Аэропорту Махараны Пратапа

  • Прогноз погоды в Аэропорту Махараны Пратапа
  • Монитор погоды в Аэропорту Махараны Пратапа

АРХИВ ПОГОДЫ в Аэропорту Махараны Пратапа

Время (UTC), дата Ветер
(напр.,м/с)
 
Видим.   Явления Облачность Т
(С)
Тd
(С)
f
(%)
Тe
(С)
Тes
(С)
Комфортность P
(гПа)
Po
(гПа)
Тmin
(С)
Tmax
(С)
R
(мм)
R24
(мм)
S
(см)
21 16.01 штиль 0 2000 м мгла ясно +10.4 +6.4 76 +10 +10 1017.6 957.2
00 17.01 штиль 0 2000 м дымка ясно +8.2 +4.3 76 +8 +8 1016.5 955.8
03 17.01 СВ 2 2000 м мгла ясно +9.6 +4.0 68 +9 +10 1018.2 957.6 +6.7 +27.3
06 17.01 С 2 4000 м мгла ясно +22.2 +3.1 29 +22 +32 комфорт 1016.3 958.5
12 17.01 В 1 4000 м мгла ясно +24.4 +4.5 28 +24 +24 комфорт 1012.6 955.3 +26.2
21 17.01 штиль 0 4000 м ясно +10.8 +5.9 72 +10 +10 1017.2 956.9
00 18.01 штиль 0 2000 м мгла ясно +8.4 +4.1 74 +8 +8 1017.6 956.9
03 18.01 штиль 0 4000 м ясно +11.0 +3.8 61 +11 +13 1018.9 958.5 +6.9 +26.2
06 18.01 В 1 4000 м ясно +21.0 +4.1 33 +23 +35 комфорт 1017.3 959.0
09 18.01 В 1 4000 м ясно +21.0 +4.1 33 +23 +32 комфорт 1017.3 959.0
12 18.01 В 1 4000 м ясно +25.2 +2.2 22 +24 +24 комфорт 1013.2 956.0 +26.8
18 18.01 штиль 0 2000 м мгла ясно +12.8 +8.2 74 +12 +12 1018.7 958.8
21 18.01 штиль 0 2000 м мгла ясно +11.0 +7.5 79 +10 +10 1019.0 958.6
00 19.01 штиль 0 2000 м мгла ясно +8.6 +5.7 82 +8 +8 1017.3 956.6
03 19.01 штиль 0 4000 м мгла ясно +10.6 +5.2 69 +10 +12 1018.4 958.0 +7.6 +26.8
06 19.01 Ю 3 4000 м мгла ясно +25.4 +6.2 29 +25 +34 комфорт 1016.7 959.4
12 19.01 ЮВ 2 4000 м ясно +26.0 +5.5 27 +25 +26 комфорт 1013.7 956.5 +28.6
18 19.01 штиль 0 4000 м мгла ясно +14.0 +6.5 61 +14 +14 1018.6 958.9
21 19.01 штиль 0 2000 м мгла ясно +12.4 +7.8 74 +12 +12 1018.5 958.6
00 20.01 СЗ 1 2000 м дымка ясно +9.6 +6.3 80 +10 +10 1017.7 957.1
03 20.01 З 1 4000 м ясно +11.0 +4.7 65 +11 +13 1019.6 959.1 +8.4 +28.6
06 20.01 Ю 3 4000 м ясно +26.8 +0.5 18 +25 +33 комфорт 1016.7 959.5
12 20.01 Ю 2 4000 м ясно +28.6 +4.2 21 +27 +27 жарко 1010.5 954.0 +31.0
18 20.01 штиль 0 4000 м мгла ясно +14.0 +7.0 63 +14 +14 1015.1 955.5
21 20.01 штиль 0 4000 м мгла ясно +12.0 +6.0 67 +12 +12 1014.6 954.7
00 21.01 штиль 0 2000 м мгла 3/0
[Ci fib]
+11.0 +7.0 76 +10 +10 1014.1 953.9
03 21.01 штиль 0 4000 м мгла 4/0
[Ac trans]
+12.6 +8.0 74 +12 +14 1014.3 954.6 +10.2 +31.0
06 21.01 Ю 3 4000 м мгла ясно +24.6 +5.5 29 +24 +33 комфорт 1011.6 954.4
12 21.01 ЮЗ 4 4000 м мгла ясно +25.0 +3.8 25 +24 +24 комфорт 1007.1 950.1 +27.9
18 21.01 ЮЗ 3 4000 м слаб. ливневой дождь, в посл. час гроза 5/5 750 м
[Cb cap]
+16.0 +12.5 80 +16 +16 1012.5 953.3
21 21.01 З 1 4000 м 5/5 750 м
[Sc]
+14.0 +9.6 75 +14 +14 1011.8 952.4 1
00 22.01 З 2 4000 м ясно +12.0 +9.0 82 +11 +11 1012.5 952.7
03 22.01 С 1 4000 м мгла ясно +10.4 +9.3 93 +11 +13 1015.0 954.8 +9.3 +27.9 1
06 22.01 Ю 1 4000 м мгла ясно +20.0 +6.8 42 +22 +34 комфорт 1014.3 956.0
12 22.01 Ю 3 4000 м мгла 5/4 900 м
[Sc Ac trans]
+22.0 +10.5 48 +24 +24 комфорт 1010.9 953.1 +23.2
18 22.01 В 1 4000 м мгла 4/0
[Ac trans]
+13.6 +10.7 83 +14 +14 1015.6 956.0
21 22.01 штиль 0 4000 м мгла 3/0
[Ac trans]
+12.0 +10.1 88 +11 +11 1014.7 954.8
00 23.01 СЗ 2 4000 м мгла ясно +9.6 +6.8 83 +8 +8 1015.8 955.4
03 23.01 Ю 1 4000 м мгла ясно +12.4 +5.5 63 +13 +15 1016.9 957.0 +8.4 +23.2
06 23.01 СВ 2 4000 м мгла ясно +19.6 +7.3 45 +21 +33 комфорт 1016.4 958.0
12 23.01 Ю 1 4000 м мгла 3/3 900 м
[]
+22.6 +5.0 32 +23 +23 комфорт 1012.8 955.1 +24.6
18 23.01 СВ 2 4000 м мгла 3/0
[Ac trans]
+14.0 +9.6 75 +14 +14 1017.4 957.7

 

Местоположение метеостанции Аэропорт Махараны Пратапа (Раджастхан, Индия): широта 24.62 долгота 73.88 высота над уровнем моря 514 м.

В архиве по умолчанию представлена погода в Аэропорту Махараны Пратапа за последнюю неделю. Архивные данные за месяц целиком и за предыдущие месяцы, начиная с января 2011 года, Вы можете получить, выбрав интересующий диапазон дат из раскрывающегося списка и нажав кнопку "Ввод!".


*Определитесь, кто Вы:
робот инопланетянин человек

Внимание! Время в таблицах - всемирное. Для получения местного времени необходимо прибавить поправку, которая равна 5.5 ч.

Смотрите также архив погоды в соседних городах и на ближайших метеорологических станциях:

Погода в Читторгархе (Раджастхан, Индия) (81 км)
Погода в Бхилваре (Раджастхан, Индия) (111 км)
Погода в Манут-Абу (Раджастхан, Индия) (117 км)
Погода в Дисе (Гуджарат, Индия) (176 км)
Погода в Ратламе (Мадхья-Прадеш, Индия) (187 км)
Погода в Гандинагаре (Гуджарат, Индия) (194 км)
Погода в Джодхпуре (Раджастхан, Индия) (206 км)
Погода в Коте (Раджастхан, Индия) (207 км)
Погода в Ахмедабаде (Гуджарат, Индия) (214 км)
Погода в Аджмере (Раджастхан, Индия) (217 км)

Пояснения к столбцам:

Ветер - указаны скорость ветра в м/с - средняя за 10 мин, порывы в срок и между сроками (в фигурных скобках) и направление, откуда дует ветер: С - северный, СВ - северо-восточный, В - восточный, ЮВ - юго-восточный, Ю - южный, ЮЗ - юго-западный, З - западный, СЗ - северо-западный.
Видимость - горизонтальная дальность видимости в метрах или километрах. При видимости от 1 до 10 км при отсутствии осадков обычно наблюдается дымка, при ухудшении видимости до 1 км и менее - туман. В сухую погоду видимость может ухудшаться дымом, пылью или мглою.
Явления - указаны атмосферные явления, наблюдавшиеся в срок или в последний час перед сроком; фигурными скобками обозначены явления, наблюдавшиеся между сроками (за 1-3 часа до срока); квадратными скобками обозначены град или гололедные отложения с указанием их диаметра в мм.
Облачность - указаны через наклонную черту общая и нижняя облачность в баллах и высота нижней границы облаков в метрах; квадратными скобками обозначены формы облаков: Ci - перистые, Cs - перисто-слоистые, Cc - перисто-кучевые, Ac - высококучевые, As - высокослоистые, Sc - слоисто-кучевые, Ns - слоисто-дождевые, Cu - кучевые, Cb - кучево-дождевые. Подробнее классификацию облаков см. в Атласе облаков (PDF).
T - Температура воздуха - температура, измеренная на высоте 2 м над землей.
Td - Температура точки росы - температура, при понижении до которой содержащийся в воздухе водяной пар достигнет насыщения.
f - Относительная влажность воздуха - влажноcть воздуха, измеренная на высоте 2 м над землей.
Te - Эффективная температура - температура, которую ощущает одетый по сезону человек в тени. Характеристика душности погоды. При расчете учитывается влияние влажности воздуха и скорости ветра на теплоощущения человека.
Tes - Эффективная температура на солнце - температура, которую ощущает человек, с поправкой на солнечный нагрев. Характеристика знойности погоды. Зависит от высоты солнца над горизонтом, облачности и скорости ветра. Ночью, в пасмурную погоду, а также при ветре 12 м/с и более поправка равна нулю.
P - Атмосферное давление - приведенное к уровню моря атмосферное давление.
Po - Атмосферное давление - измеренное на уровне метеостанции атмосферное давление.
Tmin - Минимальная температура - минимум температуры воздуха на высоте 2 м над землей.
Tmax - Максимальная температура - максимум температуры воздуха на высоте 2 м над землей.
R - Количество осадков - Количество выпавших осадков за период времени, мм. При наведении курсора мыши на число - период времени, за который выпало указанное количество осадков.
R24 - Количество осадков - Количество выпавших осадков за 24 часа, мм.
S - Снежный покров - Высота снежного покрова, см. При наведении курсора мыши на число - состояние снежного покрова и степень покрытия местности в баллах.